Jackpot Winner Ceme

Jackpot dilihat dari gabungan kartu pemain dengan kartu bandar. Bandar harus membeli jackpot sebanyak jumlah player yang sedang duduk. Sebagai contoh bila terdapat 3 pemain duduk bermain, dan bandar memutuskan untuk membeli jackpot Rp 1.000, maka pada periode tersebut bandar akan membeli jackpot sebanyak 3xRp1.000 = Rp3.000.

Jackpot bukanlah suatu keharusan untuk dibeli, namun kami memberikan suatu fitur tambahan untuk member tercinta dari www.nagapoker.com.

Terdapat tiga pilihan harga jackpot yang bisa anda beli yaitu :100,500 dan 1000 rupiah.

Hadiah dari Multi jackpot system www.nagapoker.com

  1. Murni Kecil x 50 harga jackpot yang anda beli.
      (contoH:anda membeli 1000 maka:1000 X 50 = 50.000)
  2. Murni Besar x 50 harga jackpot yang anda beli
      (contoH:anda membeli 1000 maka:1000 X 50 = 50.000)
  3. BALAK x 200 harga jackpot yang anda beli
      (contoH:anda membeli 1000 maka:1000 X 200 = 200.000)
  4. ENAM DEWA x 6666 harga jackpot yang anda beli
      (contoH:anda membeli 1000 maka:1000 X 6666 = 6.666.000)

Demikian adalah penjelasan dari Multi Jackpot www.nagapoker.com terima kasih dan selamat bermain salam hoki dari kami


Jackpot Winner

TOP ENAM DEWA
No.TanggalNamaPriceWin
124/04 04:12TELEPATYmurni enam6,666,000
224/04 02:27BRUNOALImurni enam666,600
324/04 02:21GIGIH14murni enam6,666,000
424/04 02:20RAYESH14murni enam6,666,000
524/04 01:49TEMEMPERmurni enam6,666,000
TOP BALAK
No.TanggalNamaPriceWin
124/04 04:37E630CEF3balak200,000
224/04 04:36JOESAGAbalak100,000
324/04 04:36RAYESH14balak200,000
424/04 04:36PB2481balak200,000
524/04 04:36X5PXVZ7NTVbalak100,000
LATEST JACKPOT
No.TanggalNamaPriceWin
124/04 04:39FARELAGUSmurni besar5,000
224/04 04:39LAIKERZ1murni besar50,000
324/04 04:38GARAGAR78murni besar5,000
424/04 04:38DITEMPATmurni kecil50,000
524/04 04:38WLCL999murni kecil50,000
624/04 04:38EC3EC3D6murni besar25,000
724/04 04:38ERICKANDREmurni besar5,000
824/04 04:38ANG999murni kecil50,000
924/04 04:38NY4TA99murni kecil50,000
1024/04 04:37JALU16murni besar5,000
1124/04 04:37RAJAWALI69murni besar25,000
1224/04 04:37E630CEF3balak200,000
1324/04 04:37SCOOPYNOmurni besar50,000
1424/04 04:37BUNGA031murni besar5,000
1524/04 04:36JOESAGAbalak100,000
1624/04 04:36SANTE976murni besar50,000
1724/04 04:36JAKA199murni besar5,000
1824/04 04:36CHIPEKOmurni kecil50,000
1924/04 04:36RAYESH14balak200,000
2024/04 04:36PB2481balak200,000
2124/04 04:36FARELAGUSmurni besar5,000
2224/04 04:36T3RNB79ZTQmurni besar5,000
2324/04 04:36X5PXVZ7NTVbalak100,000
2424/04 04:36CM5CV51SJGmurni besar5,000
2524/04 04:35EDO_TENSEImurni kecil5,000
2624/04 04:35OLANFIANmurni besar50,000
2724/04 04:35CM5CV51SJGmurni kecil5,000
2824/04 04:35SUTRISNOIZmurni kecil25,000
2924/04 04:35E630CEF3murni besar50,000
3024/04 04:35KHAN755murni besar50,000
3124/04 04:35MUTAL15murni besar25,000
3224/04 04:35AIE18MIRAmurni besar5,000
3324/04 04:34JENDRA68murni besar50,000
3424/04 04:34PCGSAECWWEmurni besar50,000
3524/04 04:34JENDRA68murni besar50,000
3624/04 04:34SANTE976murni kecil50,000
3724/04 04:34BERTA95murni kecil5,000
3824/04 04:34NIKILOVEmurni besar5,000
3924/04 04:34WANIDEPOmurni besar50,000
4024/04 04:34ZAL14murni besar50,000
4124/04 04:34WANIDEPOmurni besar50,000
4224/04 04:32LAIKERZ1murni besar50,000
4324/04 04:32LAIKERZ1murni besar50,000
4424/04 04:31HSPDAmurni kecil50,000
4524/04 04:31BG741NRmurni kecil50,000
4624/04 04:31MUTAL15murni kecil25,000
4724/04 04:31AMONGHEHEmurni kecil5,000
4824/04 04:31E8C640E4murni kecil50,000
4924/04 04:31E8C640E4murni kecil50,000
5024/04 04:31CHIPEKOmurni besar50,000
Dewa.FM